Flag for South Africa Weather past 2 weeks in Pretoria, South Africa

Now
45 °F

Quite cool.


Feels Like: 40 °F
Forecast: 39 / 66 °F
Wind: 8 mph from Southeast

Location: Waterkloof Lmb

Current Time: Jul 29, 2014 at 6:37:07 AM

Latest Report: Jul 29, 2014 at 6:00 AM


Visibility: N/A

Pressure: 30.60 "Hg

Humidity: 76%

Dew point: 37 °F

Location of PretoriaLocation

Historic Weather in Pretoria — Graph

°F

Pretoria temperature yesterday

Maximum temperature yesterday: 68 °F (at 3:00 PM)
Minimum temperature yesterday: 34 °F (at 7:00 AM)
Average temperature yesterday: 52 °F

Past Weeks' High & Low Weather Summary

 TemperatureHumidityPressure
High73 °F (Jul 24, 3:00 PM)87% (Jul 15, 6:00 AM)30.60 "Hg (Jul 15, 6:00 AM)
Low32 °F (Jul 27, 4:00 AM)9% (Jul 27, 2:00 PM)30.09 "Hg (Jul 18, 3:00 PM)
Average52 °F45%30.34 "Hg
* Reported Jul 14 5:00 AM — Jul 29 5:00 AM, Pretoria, Weather by CustomWeather, © 2014

Note: Actual official high and low records may vary slightly from our data, if they occured in-between our weather recording intervals... More about our weather records

Advertising

Pretoria weather history for previous 24 hours

 ConditionsComfort  
Time TempWeatherWind HumidityBarometerVisibility
5:00 AM
Jul 29
45 °FQuite cool.6 mph76%30.57 "HgN/A
4:00 AM48 °FCool.8 mph71%30.60 "HgN/A
3:00 AM50 °FCool.10 mph67%30.60 "HgN/A
2:00 AM52 °FCool.12 mph62%30.60 "HgN/A
1:00 AM52 °FCool.9 mph67%30.60 "HgN/A
12:00 AM54 °FCool.13 mph67%30.57 "HgN/A
10:00 PM
Jul 28
55 °FCool.15 mph63%30.57 "HgN/A
9:00 PM50 °FCool.3 mph58%30.54 "HgN/A
8:00 PM59 °FRefreshingly cool.5 mph42%30.51 "HgN/A
7:00 PM59 °FRefreshingly cool.3 mph42%30.51 "HgN/A
6:00 PM59 °FRefreshingly cool.5 mph42%30.48 "HgN/A
5:00 PM66 °FMild.5 mph32%30.45 "HgN/A
4:00 PM68 °FMild.1 mph30%30.45 "HgN/A
3:00 PM68 °FMild.5 mph33%30.45 "HgN/A
1:00 PM66 °FMild.8 mph37%30.48 "HgN/A
12:00 PM64 °FMild.7 mph40%30.48 "HgN/A
11:00 AM61 °FRefreshingly cool.8 mph39%30.51 "HgN/A
10:00 AM57 °FRefreshingly cool.10 mph44%30.51 "HgN/A
9:00 AM57 °FRefreshingly cool.6 mph48%30.48 "HgN/A
8:00 AM45 °FQuite cool.1 mph39%30.48 "HgN/A
7:00 AM34 °FChilly.3 mph51%30.45 "HgN/A
6:00 AM36 °FChilly.5 mph48%30.45 "HgN/A
Weather by CustomWeather, © 2014

See weather overviewHow to use our weather pages